Weather History for Lorain / Elyria, OH

Change the Weather History Date:

Wednesday, October 31, 2012

  Actual Average (KCLE) Record (KCLE)
Temperature  
Mean Temperature 40 °F 49 °F  
Max Temperature 42 °F 57 °F 82 °F (1950)
Min Temperature 39 °F 41 °F 19 °F (1988)
Degree Days  
Heating Degree Days 24 16  
Month to date heating degree days 356  
Since 1 July heating degree days 460  
Cooling Degree Days 0 0  
Month to date cooling degree days 12  
Year to date cooling degree days 816  
Moisture  
Dew Point 40 °F    
Average Humidity 98    
Maximum Humidity 100    
Minimum Humidity 93    
Precipitation  
Precipitation 0.66 in 0.10 in 1.20 in (1993)
Month to date precipitation 3.07  
Year to date precipitation 32.42  
Snow  
Snow 0.00 in 0.00 in - ()
Month to date snowfall 0.2  
Since 1 July snowfall 0.2  
Since 1 September snowfall 0.2  
Snow Depth -    
Sea Level Pressure  
Sea Level Pressure 29.56 in    
Wind  
Wind Speed 16 mph (WNW)    
Max Wind Speed 20 mph    
Max Gust Speed 28 mph    
Visibility 7 miles    
Events Rain    
T = Trace of Precipitation, MM = Missing Value Source: NWS Daily Summary

Daily Weather History Graph

Daily Weather History Graph

Search for Another Location

Airport:

Trip Planner

Search our weather history database for the weather conditions in past years. The results will help you decide how hot, cold, wet, or windy it might be!

Date:

Astronomy

Oct. 31, 2012 Rise Set
Actual Time 7:59 AM EDT 6:24 PM EDT
Civil Twilight 7:30 AM EDT 6:53 PM EDT
Nautical Twilight 6:58 AM EDT 7:25 PM EDT
Astronomical Twilight 6:26 AM EDT 7:57 PM EDT
Moon 7:33 PM EDT (10/31) 9:40 AM EDT (10/31)
Length of Visible Light 11h 22m
Length of Day
10h 24m
Full, 97% of the Moon is Illuminated
Oct 31
Full
Nov 6
Last Quarter
Nov 13
New
Nov 20
First Quarter
Nov 28
Full

Hourly Weather History & Observations

Time (EDT) Temp. Windchill Dew Point Humidity Pressure Visibility Wind Dir Wind Speed Gust Speed Precip Events Conditions
12:53 AM 42.1 °F 33.3 °F 41.0 °F 96% 29.44 in 6.0 mi NW 19.6 mph 27.6 mph 0.08 in Rain Light Rain
1:13 AM 41.0 °F 31.9 °F 41.0 °F 100% 29.43 in 7.0 mi NW 19.6 mph 24.2 mph 0.03 in Rain Light Rain
1:53 AM 41.0 °F 31.9 °F 41.0 °F 100% 29.44 in 9.0 mi NW 19.6 mph 27.6 mph 0.07 in Rain Light Rain
2:53 AM 41.0 °F 32.5 °F 39.9 °F 96% 29.45 in 9.0 mi NW 17.3 mph 26.5 mph 0.06 in Rain Light Rain
3:53 AM 39.9 °F 30.8 °F 39.9 °F 100% 29.47 in 7.0 mi NW 18.4 mph 27.6 mph 0.06 in Rain Light Rain
4:00 AM 39.2 °F 30.2 °F 39.2 °F 100% 29.45 in 7.0 mi NW 17.3 mph 24.2 mph 0.00 in Rain Light Rain
4:48 AM 39.2 °F 30.2 °F 39.2 °F 100% 29.46 in 7.0 mi NW 17.3 mph - 0.04 in Rain Light Rain
4:53 AM 39.9 °F 31.1 °F 39.0 °F 97% 29.47 in 6.0 mi NW 17.3 mph - 0.05 in Rain Light Rain
5:28 AM 39.2 °F 30.2 °F 39.2 °F 100% 29.47 in 7.0 mi NW 17.3 mph - 0.02 in Rain Light Rain
5:53 AM 39.9 °F 31.1 °F 39.0 °F 97% 29.49 in 6.0 mi NW 17.3 mph 25.3 mph 0.04 in Rain Light Rain
6:53 AM 39.9 °F 31.1 °F 39.0 °F 97% 29.50 in 2.5 mi NW 17.3 mph - 0.04 in Rain Light Rain
7:05 AM 39.2 °F 30.8 °F 39.2 °F 100% 29.49 in 4.0 mi NW 15.0 mph - 0.02 in Rain Light Rain
7:53 AM 39.9 °F 31.8 °F 39.0 °F 97% 29.51 in 5.0 mi NW 15.0 mph 27.6 mph 0.05 in Rain Light Rain
8:53 AM 39.9 °F 31.1 °F 39.9 °F 100% 29.53 in 10.0 mi NW 17.3 mph 24.2 mph 0.00 in   Overcast
9:53 AM 41.0 °F 32.8 °F 39.9 °F 96% 29.55 in 10.0 mi NW 16.1 mph 24.2 mph 0.00 in   Overcast
10:29 AM 39.2 °F 29.8 °F 39.2 °F 100% 29.54 in 10.0 mi NW 18.4 mph 26.5 mph 0.02 in Rain Light Rain
10:53 AM 39.9 °F 31.4 °F 39.9 °F 100% 29.56 in 6.0 mi NW 16.1 mph - 0.04 in Rain Light Rain
11:20 AM 41.0 °F 33.1 °F 39.2 °F 93% 29.55 in 6.0 mi NW 15.0 mph - 0.03 in Rain Light Rain
11:53 AM 41.0 °F 33.5 °F 39.9 °F 96% 29.57 in 7.0 mi WNW 13.8 mph - 0.04 in Rain Light Rain
12:53 PM 41.0 °F 33.1 °F 39.9 °F 96% 29.58 in 6.0 mi WNW 15.0 mph 23.0 mph 0.02 in Rain Light Rain
1:53 PM 39.9 °F 31.4 °F 39.9 °F 100% 29.59 in 4.0 mi WNW 16.1 mph - 0.01 in   Overcast
2:14 PM 39.2 °F 31.2 °F 39.2 °F 100% 29.58 in 2.5 mi WNW 13.8 mph 20.7 mph N/A   Overcast
2:35 PM 39.2 °F 31.2 °F 39.2 °F 100% 29.58 in 4.0 mi WNW 13.8 mph 20.7 mph 0.01 in   Overcast
3:12 PM 41.0 °F 33.5 °F 39.2 °F 93% 29.58 in 10.0 mi West 13.8 mph - 0.00 in   Overcast
3:53 PM 41.0 °F 34.7 °F 39.9 °F 96% 29.60 in 10.0 mi West 10.4 mph - 0.00 in Rain Light Rain
4:53 PM 41.0 °F 33.9 °F 39.9 °F 96% 29.61 in 10.0 mi West 12.7 mph 19.6 mph 0.00 in Rain Light Rain
5:53 PM 39.9 °F 33.4 °F 39.9 °F 100% 29.63 in 10.0 mi West 10.4 mph - 0.02 in Rain Light Rain
6:26 PM 39.2 °F 31.2 °F 39.2 °F 100% 29.62 in 9.0 mi WNW 13.8 mph - 0.02 in Rain Light Rain
6:33 PM 39.2 °F 31.6 °F 39.2 °F 100% 29.63 in 10.0 mi West 12.7 mph - 0.02 in Rain Light Rain
6:53 PM 39.9 °F 33.4 °F 39.0 °F 97% 29.65 in 10.0 mi West 10.4 mph - 0.03 in Rain Light Rain
7:14 PM 39.2 °F 32.5 °F 39.2 °F 100% 29.63 in 10.0 mi West 10.4 mph - 0.01 in Rain Light Rain
7:53 PM 41.0 °F 34.3 °F 39.9 °F 96% 29.65 in 10.0 mi West 11.5 mph - 0.02 in Rain Light Rain
8:43 PM 41.0 °F 33.9 °F 39.2 °F 93% 29.64 in 6.0 mi West 12.7 mph - 0.01 in   Overcast
8:53 PM 41.0 °F 33.5 °F 39.9 °F 96% 29.66 in 4.0 mi West 13.8 mph - 0.01 in   Overcast
9:53 PM 41.0 °F 34.3 °F 39.9 °F 96% 29.66 in 4.0 mi West 11.5 mph 18.4 mph 0.01 in Rain Light Rain
10:53 PM 41.0 °F 35.2 °F 39.9 °F 96% 29.67 in 5.0 mi West 9.2 mph - 0.00 in   Overcast
11:53 PM 39.9 °F 32.9 °F 39.9 °F 100% 29.67 in 4.0 mi West 11.5 mph - 0.01 in Rain Light Rain